This is the latest recevied weather packets stored in our database for station/object K8MUD. If no packets are shown the sender has not sent any weather packets the latest 10 day(s).
| Time | Temp. | Humidity | Pressure | Rain* | Wind** | Luminosity | Snow |
|---|---|---|---|---|---|---|---|
| 1777654636 | 8.33° C | 73% | 1012.9 hPa | 0 mm | - | - | - |
| 1777654336 | 8.89° C | 72% | 1012.9 hPa | 0 mm | - | - | - |
| 1777654036 | 8.89° C | 71% | 1012.9 hPa | 0 mm | - | - | - |
| 1777653736 | 9.44° C | 71% | 1012.8 hPa | 0 mm | - | - | - |
| 1777653436 | 9.44° C | 72% | 1012.6 hPa | 0 mm | - | - | - |
| 1777653136 | 8.89° C | 73% | 1012.7 hPa | 0 mm | - | - | - |
| 1777652836 | 8.89° C | 72% | 1012.7 hPa | 0 mm | - | - | - |
| 1777652536 | 8.89° C | 74% | 1012.8 hPa | 0 mm | - | - | - |
| 1777652236 | 8.33° C | 76% | 1012.9 hPa | 0 mm | - | - | - |
| 1777651936 | 8.33° C | 75% | 1013.1 hPa | 0 mm | - | - | - |
| 1777651636 | 8.33° C | 75% | 1013.1 hPa | 0 mm | - | - | - |
| 1777651336 | 7.78° C | 74% | 1013.2 hPa | 0 mm | - | - | - |
| 1777651036 | 8.33° C | 74% | 1013.2 hPa | 0 mm | - | - | - |
| 1777650735 | 8.33° C | 73% | 1013.3 hPa | 0 mm | - | - | - |
| 1777650435 | 8.33° C | 73% | 1013.1 hPa | 0 mm | - | - | - |
| 1777650135 | 8.33° C | 73% | 1013.2 hPa | 0 mm | - | - | - |
| 1777649835 | 8.89° C | 73% | 1013.2 hPa | 0 mm | - | - | - |
| 1777649535 | 8.89° C | 74% | 1013.2 hPa | 0 mm | - | - | - |
| 1777649235 | 8.33° C | 73% | 1013.2 hPa | 0 mm | - | - | - |
| 1777648935 | 8.33° C | 72% | 1013.1 hPa | 0 mm | - | - | - |
| 1777648635 | 8.33° C | 73% | 1013.2 hPa | 0 mm | - | - | - |
| 1777648335 | 8.33° C | 72% | 1013.3 hPa | 0 mm | - | - | - |
| 1777648035 | 8.33° C | 73% | 1013.4 hPa | 0 mm | - | - | - |
| 1777647735 | 8.33° C | 72% | 1013.3 hPa | 0 mm | - | - | - |
| 1777647435 | 7.78° C | 74% | 1013.3 hPa | 0 mm | - | - | - |
* Rain latest hour (hover to see other rain measurements)
** Current wind speed in m/s (hover to see current wind gust speed)